FW6151 Weather Reports


time (UTC)temp
F
wind
direction
speed
knots
gust
knots
rain 1hr
in
rain 24hr
in
rain mn
in
humidity
%
barometer
mb
20260507164051 63 223 0.0 4.3 0.00 0.27 0.21 58 1017.0
20260507163551 63 335 0.9 4.3 0.00 0.27 0.21 58 1016.9
20260507163050 63 323 0.9 4.3 0.00 0.27 0.21 59 1016.8
20260507162551 62 227 0.9 3.5 0.00 0.27 0.21 59 1016.8
20260507162054 62 336 1.7 5.2 0.00 0.27 0.21 59 1016.9
20260507161553 62 319 2.6 5.2 0.00 0.27 0.21 61 1016.9
20260507161054 62 219 0.9 3.5 0.00 0.27 0.21 61 1016.8
20260507160550 62 211 1.7 5.2 0.00 0.27 0.21 61 1017.0
20260507160111 62 228 0.0 5.2 0.00 0.28 0.21 61 1016.9
20260507155553 62 24 0.0 4.3 0.00 0.28 0.21 62 1016.9
20260507155052 62 327 1.7 4.3 0.00 0.28 0.21 61 1016.9
20260507154549 63 263 1.7 5.2 0.00 0.28 0.21 60 1016.9
20260507154049 63 190 1.7 7.0 0.00 0.28 0.21 60 1016.9
20260507153553 63 323 1.7 7.0 0.00 0.28 0.21 59 1016.9
20260507153049 63 192 0.0 4.3 0.00 0.28 0.21 61 1016.9
20260507152557 63 192 0.9 4.3 0.00 0.28 0.21 61 1016.8
20260507152052 63 338 0.9 5.2 0.00 0.28 0.21 61 1016.8
20260507151556 63 340 0.9 5.2 0.00 0.28 0.21 60 1016.8
20260507151049 63 316 0.9 7.8 0.00 0.28 0.21 61 1016.9
20260507150548 63 322 0.9 7.8 0.00 0.28 0.21 60 1016.9
20260507150048 63 190 0.0 3.5 0.00 0.30 0.21 61 1016.9
20260507145548 63 316 0.9 6.1 0.00 0.30 0.21 61 1016.9
20260507145050 63 223 1.7 6.1 0.00 0.30 0.21 60 1016.9
20260507144548 63 291 1.7 4.3 0.00 0.30 0.21 59 1017.0
20260507144048 64 329 0.9 5.2 0.00 0.30 0.21 59 1017.0
20260507143547 64 200 1.7 7.0 0.00 0.30 0.21 59 1017.1
20260507143049 64 343 1.7 4.3 0.00 0.30 0.21 60 1017.0
20260507142551 63 355 0.9 4.3 0.00 0.30 0.21 61 1017.0
20260507142047 63 237 0.9 4.3 0.00 0.30 0.21 61 1017.0
20260507141548 63 228 0.9 4.3 0.00 0.30 0.21 58 1017.0
20260507141047 63 348 1.7 7.0 0.00 0.30 0.21 58 1017.0
20260507140548 64 230 0.9 7.8 0.00 0.30 0.21 60 1017.0
20260507140053 64 347 1.7 7.8 0.00 0.35 0.21 59 1017.0
20260507135546 65 214 0.9 7.8 0.00 0.35 0.21 57 1017.0
20260507135046 65 338 2.6 5.2 0.00 0.35 0.21 55 1016.9
20260507134546 65 289 0.9 5.2 0.00 0.35 0.21 52 1017.0
20260507134045 66 173 0.0 4.3 0.00 0.35 0.21 49 1017.0
20260507133545 66 260 0.9 5.2 0.00 0.35 0.21 49 1017.1
20260507133045 66 165 0.0 5.2 0.00 0.35 0.21 51 1017.1
20260507132544 66 340 0.9 7.0 0.00 0.35 0.21 52 1017.1
20260507132044 66 338 1.7 7.0 0.00 0.35 0.21 52 1017.1
20260507131609 65 115 1.7 4.3 0.00 0.35 0.21 53 1017.1
20260507131042 66 328 0.9 4.3 0.00 0.35 0.21 57 1017.2
20260507130541 65 181 0.0 2.6 0.00 0.35 0.21 58 1017.2
20260507130041 65 181 0.0 4.3 0.00 0.43 0.21 56 1017.2
20260507125540 65 196 0.0 7.0 0.00 0.43 0.21 61 1017.3
20260507125040 64 265 1.7 7.0 0.00 0.43 0.21 57 1017.3
20260507124549 64 130 0.9 3.5 0.00 0.43 0.21 57 1017.3
20260507124039 64 30 0.0 2.6 0.00 0.43 0.21 58 1017.3
20260507123539 64 30 0.9 2.6 0.00 0.43 0.21 57 1017.4
20260507123043 64 188 0.0 2.6 0.00 0.43 0.21 58 1017.5
20260507122538 64 188 0.0 2.6 0.00 0.43 0.21 61 1017.4
20260507122040 62 188 0.0 2.6 0.00 0.43 0.21 65 1017.5
20260507121536 62 188 0.0 3.5 0.00 0.43 0.21 62 1017.5
20260507121035 62 188 0.0 3.5 0.00 0.43 0.21 63 1017.6
20260507120535 62 188 0.0 6.1 0.00 0.43 0.21 68 1017.4
20260507120039 62 188 0.0 6.1 0.00 0.63 0.21 65 1017.6
20260507115534 62 175 0.0 2.6 0.00 0.63 0.21 66 1017.6
20260507115032 62 175 0.9 3.5 0.00 0.63 0.21 66 1017.6
20260507114533 61 175 0.9 3.5 0.00 0.63 0.21 65 1017.6
20260507114037 61 175 0.0 2.6 0.00 0.63 0.21 68 1017.6
20260507113531 61 175 0.0 2.6 0.00 0.63 0.21 68 1017.6
20260507113059 60 175 0.9 2.6 0.00 0.63 0.21 67 1017.5
20260507112532 60 175 0.0 2.6 0.00 0.63 0.21 67 1017.6
20260507112029 60 175 0.0 4.3 0.00 0.63 0.21 67 1017.7
20260507111532 60 175 0.9 4.3 0.00 0.63 0.21 68 1017.6
20260507111027 60 175 0.0 3.5 0.00 0.63 0.21 69 1017.6
20260507110627 60 175 0.9 3.5 0.00 0.63 0.21 69 1017.7
20260507110029 59 173 0.9 3.5 0.00 0.66 0.21 69 1017.7
20260507105526 60 167 0.0 1.7 0.00 0.66 0.21 69 1017.6
20260507105026 59 167 0.0 2.6 0.00 0.66 0.21 71 1017.6
20260507104526 59 142 0.0 2.6 0.00 0.66 0.21 70 1017.7
20260507104025 59 140 0.0 2.6 0.00 0.66 0.21 70 1017.8
20260507103525 59 128 0.0 1.7 0.00 0.66 0.21 72 1017.8
20260507103026 59 69 0.0 4.3 0.00 0.66 0.21 73 1017.8
20260507102528 59 355 0.9 4.3 0.00 0.66 0.21 68 1017.9
20260507102026 60 355 0.9 5.2 0.00 0.66 0.21 68 1017.9
20260507101527 60 317 1.7 4.3 0.00 0.66 0.21 70 1017.8
20260507101024 60 179 0.9 4.3 0.00 0.66 0.21 71 1017.8
20260507100523 60 179 0.9 3.5 0.00 0.66 0.21 71 1017.8
20260507100032 59 179 0.9 2.6 0.00 0.66 0.21 74 1017.8
20260507095521 58 273 0.0 2.6 0.00 0.66 0.21 76 1017.9
20260507095120 57 308 0.0 3.5 0.00 0.66 0.21 76 1017.9
20260507094518 56 299 0.9 2.6 0.00 0.66 0.21 76 1018.0
20260507094018 56 243 0.0 6.1 0.00 0.66 0.21 77 1018.1
20260507093518 56 249 0.9 6.1 0.00 0.66 0.21 75 1018.1
20260507093018 57 169 0.0 4.3 0.00 0.66 0.21 76 1018.0
20260507092520 57 169 0.0 2.6 0.00 0.66 0.21 77 1018.1
20260507092017 57 169 0.0 2.6 0.00 0.66 0.21 77 1018.0
20260507091520 56 169 0.0 2.6 0.00 0.66 0.21 77 1018.1
20260507091017 56 9 0.0 6.1 0.00 0.66 0.21 78 1018.0
20260507090516 57 171 1.7 6.1 0.00 0.66 0.21 78 1017.8
20260507090014 57 176 0.0 2.6 0.00 0.66 0.21 79 1017.9
20260507085514 57 176 0.0 2.6 0.00 0.66 0.21 80 1017.8
20260507085013 57 176 0.9 2.6 0.00 0.66 0.21 82 1017.7
20260507084528 56 190 0.9 6.1 0.00 0.66 0.21 84 1017.8
20260507084010 55 191 0.9 3.5 0.01 0.66 0.21 87 1017.6
20260507083509 54 190 0.9 3.5 0.01 0.66 0.21 89 1017.7
20260507083017 53 191 0.0 4.3 0.01 0.66 0.21 91 1017.8
20260507082506 53 191 0.0 4.3 0.01 0.66 0.21 91 1017.7
20260507082005 52 190 0.0 2.6 0.01 0.66 0.21 92 1017.8
20260507081504 52 190 0.0 2.6 0.01 0.66 0.21 92 1017.7
20260507081007 52 190 0.0 3.5 0.01 0.66 0.21 92 1017.8
20260507080505 52 191 0.9 2.6 0.01 0.66 0.21 92 1017.8
20260507080003 52 195 0.0 2.6 0.01 0.66 0.21 93 1017.8
20260507075502 52 195 0.0 2.6 0.01 0.66 0.21 93 1017.8
20260507075100 52 103 0.0 3.5 0.01 0.66 0.21 93 1017.8
20260507074559 52 163 0.0 3.5 0.01 0.66 0.21 93 1017.6
20260507074057 51 252 0.9 2.6 0.00 0.65 0.20 93 1017.7
20260507073556 51 183 0.0 2.6 0.00 0.65 0.20 94 1017.6
20260507073058 51 183 0.0 1.7 0.00 0.65 0.20 94 1017.6
20260507072554 51 183 0.0 1.7 0.00 0.65 0.20 93 1017.6
20260507072056 51 183 0.0 1.7 0.00 0.65 0.20 93 1017.6
20260507071551 50 183 0.0 1.7 0.01 0.65 0.20 93 1017.7
20260507071050 50 183 0.0 1.7 0.02 0.65 0.20 93 1017.5
20260507070550 50 183 0.0 0.9 0.02 0.65 0.20 93 1017.5
20260507065548 50 183 0.0 1.7 0.04 0.65 0.20 93 1017.4
20260507065048 50 183 0.0 1.7 0.04 0.65 0.20 93 1017.4
20260507064548 50 183 0.0 1.7 0.04 0.65 0.20 93 1017.4
20260507064047 50 183 0.0 1.7 0.04 0.65 0.20 93 1017.3
20260507063546 50 183 0.0 1.7 0.04 0.65 0.20 93 1017.3
20260507063052 50 183 0.0 0.9 0.05 0.65 0.20 93 1017.2
20260507062544 50 183 0.0 0.9 0.05 0.65 0.20 93 1017.3
20260507062047 50 183 0.0 0.9 0.05 0.65 0.20 93 1017.3
20260507061544 50 183 0.0 0.9 0.04 0.64 0.19 93 1017.4
20260507061043 50 183 0.0 0.9 0.03 0.63 0.18 93 1017.3
20260507060542 50 183 0.0 1.7 0.03 0.63 0.18 93 1017.2
20260507060043 49 183 0.0 3.5 0.03 0.62 0.17 93 1017.2
20260507055540 49 269 0.0 3.5 0.02 0.61 0.16 93 1017.1
20260507055039 49 196 0.0 1.7 0.02 0.61 0.16 93 1017.1
20260507054541 49 196 0.0 2.6 0.02 0.61 0.16 93 1017.0
20260507054038 49 196 0.0 1.7 0.02 0.61 0.16 93 1017.0
20260507053537 49 196 0.0 2.6 0.01 0.60 0.15 93 1017.0
20260507053038 49 196 0.0 2.6 0.01 0.60 0.15 93 1016.8
20260507052535 49 196 0.0 2.6 0.01 0.60 0.15 93 1016.8
20260507052035 49 196 0.0 1.7 0.01 0.60 0.15 93 1016.7
20260507051535 49 196 0.0 1.7 0.01 0.60 0.15 93 1016.7
20260507051034 49 196 0.0 1.7 0.01 0.60 0.15 93 1016.7
20260507050533 49 196 0.0 4.3 0.01 0.60 0.15 93 1016.6
20260507050058 49 196 0.0 4.3 0.00 0.59 0.14 93 1016.6
20260507045532 49 194 0.0 0.0 0.00 0.59 0.14 93 1016.5
20260507045032 49 194 0.0 0.0 0.00 0.59 0.14 93 1016.4
20260507044545 49 194 0.0 0.0 0.00 0.59 0.14 93 1016.3
20260507044030 49 194 0.0 1.7 0.00 0.59 0.14 93 1016.3
20260507043530 49 194 0.0 2.6 0.00 0.59 0.14 93 1016.2
20260507043030 49 194 0.0 2.6 0.00 0.59 0.14 93 1016.2
20260507042530 49 194 0.0 0.9 0.00 0.59 0.14 93 1016.2
20260507042030 49 194 0.0 1.7 0.00 0.59 0.14 93 1016.1
20260507041529 49 194 0.0 1.7 0.01 0.59 0.14 93 1016.1
20260507041032 49 194 0.0 1.7 0.01 0.59 0.14 93 1016.1
20260507040530 49 194 0.0 0.9 0.01 0.59 0.14 93 1016.1
20260507040028 49 194 0.0 1.7 0.01 0.59 0.14 93 1016.0
20260507035528 49 194 0.0 0.9 0.01 0.59 0.14 93 1016.1
20260507035031 49 194 0.0 0.9 0.01 0.59 0.14 93 1016.0
20260507034535 49 194 0.0 0.9 0.01 0.59 0.14 93 1016.0
20260507034026 49 194 0.0 1.7 0.01 0.59 0.14 93 1016.0
20260507033526 49 194 0.0 2.6 0.01 0.59 0.14 93 1015.9
20260507033033 49 252 0.0 2.6 0.01 0.59 0.14 93 1015.9
20260507032526 49 252 0.0 2.6 0.01 0.59 0.14 93 1015.8
20260507032026 49 192 0.0 1.7 0.02 0.59 0.14 93 1015.8
20260507031531 49 252 0.0 2.6 0.01 0.57 0.13 93 1015.8
20260507031029 49 198 0.0 3.5 0.01 0.57 0.13 93 1015.8
20260507030526 49 243 0.0 3.5 0.01 0.57 0.13 93 1015.8
20260507030033 49 192 0.0 5.2 0.02 0.57 0.13 93 1015.8
20260507025524 49 95 0.0 5.2 0.02 0.57 0.13 93 1015.9
20260507025024 49 125 0.0 3.5 0.03 0.57 0.13 93 1015.8
20260507024527 49 188 0.0 2.6 0.03 0.57 0.13 93 1015.8
20260507024023 49 188 0.0 3.5 0.04 0.57 0.13 93 1015.7
20260507023522 49 223 0.0 3.5 0.04 0.57 0.13 93 1015.7
20260507023022 49 167 0.0 0.9 0.05 0.57 0.13 93 1015.8
20260507022522 49 153 0.0 1.7 0.05 0.57 0.13 93 1015.6
20260507022023 49 153 0.0 1.7 0.04 0.56 0.12 93 1015.6
20260507021538 49 150 0.0 1.7 0.05 0.56 0.12 93 1015.6
20260507021021 49 123 0.0 4.3 0.05 0.56 0.12 93 1015.6
20260507020521 49 122 0.0 4.3 0.05 0.56 0.11 93 1015.6
20260507020023 49 68 0.0 1.7 0.05 0.56 0.11 93 1015.6
20260507015519 49 68 0.0 1.7 0.05 0.55 0.10 93 1015.5
20260507015019 49 68 0.0 1.7 0.06 0.55 0.10 93 1015.4
20260507014522 49 68 0.0 0.0 0.06 0.55 0.10 93 1015.4
20260507014022 49 68 0.0 0.0 0.05 0.54 0.09 93 1015.4
20260507013518 49 68 0.0 0.0 0.06 0.54 0.09 93 1015.3
20260507013018 49 68 0.0 0.9 0.05 0.53 0.08 92 1015.4
20260507012519 49 68 0.0 0.9 0.05 0.53 0.08 92 1015.3
20260507012017 49 68 0.0 0.0 0.05 0.52 0.07 92 1015.3
20260507011524 49 68 0.0 0.9 0.05 0.52 0.07 92 1015.3
20260507011016 49 68 0.0 0.9 0.05 0.52 0.07 92 1015.2
20260507010518 49 68 0.0 0.9 0.04 0.51 0.06 92 1015.2
20260507010028 49 68 0.0 0.0 0.04 0.51 0.06 92 1015.2
20260507005514 49 68 0.0 0.9 0.03 0.50 0.05 92 1015.2
20260507005021 49 68 0.0 0.9 0.02 0.49 0.04 92 1015.2
20260507004519 49 68 0.0 0.0 0.02 0.49 0.04 92 1015.2
20260507004014 49 68 0.0 0.0 0.02 0.49 0.04 92 1015.2
20260507003514 49 68 0.0 0.0 0.01 0.48 0.03 92 1015.2
20260507003013 49 68 0.0 0.9 0.01 0.48 0.03 92 1015.1
20260507002513 49 68 0.0 0.9 0.01 0.48 0.03 92 1015.0
20260507002013 49 68 0.0 0.0 0.00 0.47 0.02 92 1015.0
20260507001513 49 68 0.0 0.0 0.01 0.47 0.02 92 1015.0
20260507001012 49 68 0.0 0.0 0.01 0.47 0.02 92 1015.0
20260507000522 49 68 0.0 0.0 0.02 0.47 0.02 92 1015.0
20260507000012 49 68 0.0 0.9 0.02 0.47 0.02 92 1014.9
20260506235512 49 68 0.0 0.9 0.02 0.47 0.02 92 1014.9
20260506235016 49 68 0.0 0.0 0.02 0.47 0.02 92 1015.0
20260506234511 50 68 0.0 0.0 0.02 0.47 0.02 92 1015.0
20260506234011 50 68 0.0 0.0 0.02 0.47 0.02 92 1015.0
20260506233511 50 68 0.0 0.0 0.02 0.47 0.02 92 1015.0
20260506233011 50 68 0.0 0.0 0.02 0.47 0.02 92 1014.9
20260506232513 50 68 0.0 0.0 0.02 0.47 0.02 92 1014.9
20260506232010 50 68 0.0 0.9 0.02 0.47 0.02 92 1014.9
20260506231509 50 68 0.0 0.9 0.01 0.46 0.01 92 1014.9
20260506231009 50 68 0.0 1.7 0.01 0.46 0.01 92 1015.0
20260506230509 50 68 0.0 1.7 0.00 0.45 0.00 92 1015.0
20260506230010 50 68 0.0 0.0 0.00 0.46 0.00 92 1014.9
20260506225513 50 68 0.0 1.7 0.00 0.46 0.00 92 1014.9
20260506225007 50 68 0.0 1.7 0.00 0.46 0.00 92 1014.9
20260506224507 50 68 0.0 0.0 0.00 0.46 0.00 92 1014.9
20260506224007 50 68 0.0 0.0 0.00 0.46 0.00 92 1014.9
20260506223509 50 68 0.0 0.0 0.00 0.46 0.00 92 1014.8
20260506223012 50 68 0.0 0.0 0.00 0.46 0.00 92 1014.8
20260506222506 50 68 0.0 0.9 0.00 0.46 0.00 92 1014.8
20260506222008 50 68 0.0 0.9 0.00 0.46 0.00 92 1014.9
20260506221505 50 68 0.0 0.9 0.00 0.46 0.00 92 1014.8
20260506221003 50 68 0.0 0.0 0.00 0.46 0.00 92 1014.8
20260506220502 51 68 0.0 0.0 0.00 0.46 0.00 92 1014.8
20260506215603 51 68 0.0 0.0 0.00 0.46 0.46 91 1014.8
20260506215103 51 68 0.0 0.9 0.00 0.46 0.46 91 1014.9
20260506214600 51 68 0.0 0.9 0.00 0.46 0.46 91 1014.8
20260506214100 51 68 0.0 0.0 0.00 0.46 0.46 91 1014.8
20260506213600 51 68 0.0 0.0 0.00 0.46 0.46 91 1014.8
20260506213059 51 68 0.0 0.9 0.00 0.46 0.46 91 1014.8
20260506212559 51 68 0.0 1.7 0.00 0.46 0.46 91 1014.8
20260506212059 51 68 0.0 1.7 0.00 0.46 0.46 91 1014.8
20260506211558 51 68 0.0 0.0 0.00 0.46 0.46 91 1014.6
20260506211058 51 68 0.0 0.0 0.00 0.46 0.46 91 1014.6
20260506210558 51 68 0.0 0.0 0.00 0.46 0.46 91 1014.6
20260506210058 51 68 0.0 0.0 0.00 0.46 0.46 91 1014.5
20260506205559 51 68 0.0 0.9 0.00 0.46 0.46 91 1014.6
20260506205056 51 68 0.0 0.0 0.00 0.46 0.46 91 1014.5
20260506204601 51 68 0.0 0.9 0.00 0.46 0.46 91 1014.5
20260506204055 51 68 0.0 2.6 0.00 0.46 0.46 91 1014.4
20260506203556 51 68 0.9 2.6 0.00 0.46 0.46 91 1014.4
20260506203055 51 290 0.0 3.5 0.00 0.46 0.46 91 1014.3
20260506202558 51 326 0.9 3.5 0.00 0.46 0.46 91 1014.4
20260506202057 51 191 0.0 2.6 0.00 0.46 0.46 91 1014.3
20260506201557 51 191 0.0 2.6 0.00 0.46 0.46 91 1014.3
20260506201054 51 191 0.0 2.6 0.00 0.46 0.46 92 1014.3
20260506200556 51 191 0.0 2.6 0.00 0.46 0.46 92 1014.1
20260506200108 51 191 0.0 0.0 0.00 0.46 0.46 92 1014.1
20260506195555 51 191 0.0 0.0 0.00 0.46 0.46 92 1014.1
20260506195053 51 191 0.0 0.0 0.00 0.46 0.46 92 1013.9
20260506194606 51 191 0.0 0.0 0.00 0.46 0.46 91 1013.9
20260506194051 51 191 0.0 0.0 0.00 0.46 0.46 91 1013.9
20260506193550 51 191 0.0 0.9 0.00 0.46 0.46 91 1013.7
20260506193050 51 191 0.0 0.9 0.00 0.46 0.46 91 1013.6
20260506192549 51 191 0.0 0.0 0.00 0.46 0.46 91 1013.5
20260506192053 51 191 0.0 0.0 0.00 0.46 0.46 91 1013.6
20260506191549 51 191 0.0 0.0 0.00 0.46 0.46 91 1013.6
20260506191051 51 191 0.0 0.0 0.00 0.46 0.46 91 1013.5
20260506190550 52 191 0.0 0.0 0.00 0.46 0.46 91 1013.4
20260506190048 52 191 0.0 0.0 0.01 0.46 0.46 91 1013.4
20260506185547 52 191 0.0 0.0 0.01 0.46 0.46 91 1013.3
20260506185050 52 191 0.0 0.0 0.01 0.46 0.46 91 1013.2
20260506184547 52 191 0.0 1.7 0.01 0.46 0.46 91 1013.2
20260506184046 52 191 0.0 1.7 0.02 0.46 0.46 91 1013.2
20260506183546 52 191 0.0 0.0 0.02 0.46 0.46 91 1013.2
20260506183059 52 191 0.0 0.0 0.02 0.46 0.46 90 1013.1
20260506182545 52 191 0.0 0.0 0.02 0.46 0.46 91 1013.0
20260506182045 52 191 0.0 0.0 0.02 0.46 0.46 90 1013.0
20260506181553 52 191 0.0 0.0 0.03 0.46 0.46 90 1013.0
20260506181045 52 191 0.0 0.0 0.03 0.46 0.46 90 1013.0
20260506180547 52 191 0.0 0.0 0.03 0.46 0.46 90 1013.0
20260506180044 52 191 0.0 0.0 0.02 0.53 0.45 90 1013.0
20260506175546 52 191 0.0 0.0 0.03 0.53 0.45 90 1013.0
20260506175044 52 191 0.0 0.0 0.03 0.53 0.45 90 1012.9
20260506174543 52 191 0.0 0.0 0.03 0.53 0.45 90 1012.8
20260506174043 52 191 0.0 0.0 0.02 0.52 0.44 90 1012.9
20260506173542 52 191 0.0 0.0 0.02 0.52 0.44 90 1012.8
20260506173052 53 191 0.0 0.0 0.03 0.52 0.44 90 1012.8
20260506172543 53 191 0.0 0.0 0.03 0.52 0.44 90 1012.7
20260506172042 53 191 0.0 0.0 0.03 0.52 0.44 90 1012.6
20260506171545 53 191 0.0 0.0 0.02 0.51 0.43 91 1012.6
20260506171040 53 191 0.0 0.0 0.03 0.51 0.43 91 1012.6
20260506170540 53 191 0.0 0.0 0.03 0.51 0.43 91 1012.5
20260506170044 53 191 0.0 0.0 0.03 0.51 0.43 91 1012.5
20260506165539 53 191 0.0 0.0 0.02 0.50 0.42 90 1012.5
20260506165038 53 191 0.0 0.0 0.02 0.50 0.42 90 1012.5
20260506164546 53 191 0.0 0.0 0.03 0.50 0.42 90 1012.4